Location: Unspecified
(42.6083°N, 0.0000°E)
Time: 14:10:37
(UTC+00:00)

CZ-12 R/B - Visible Passes

Search period start: 04 April 2026 00:00
Search period end: 14 April 2026 00:00
Orbit: 942 x 1032 km, 50.0° (Epoch: 29 March)

Date Brightness Start Highest point End Pass type
(mag) Time Alt. Az. Time Alt. Az. Time Alt. Az.
4 Apr ? 01:53:33 47° N 01:53:33 47° N 01:59:58 10° ENE visible
4 Apr ? 03:38:22 13° WNW 03:44:23 51° NNE 03:50:51 10° E visible
5 Apr ? 00:36:00 26° NE 00:36:00 26° NE 00:38:48 10° ENE visible
5 Apr ? 02:20:49 36° NW 02:22:52 45° N 02:29:17 10° ENE visible
5 Apr ? 04:06:51 10° WNW 04:13:36 67° NNE 04:20:12 10° ESE visible
6 Apr ? 01:03:16 39° NNE 01:03:16 39° NNE 01:07:53 10° ENE visible
6 Apr ? 02:48:04 22° NW 02:52:14 49° N 02:58:42 10° E visible
6 Apr ? 04:35:51 10° WNW 04:42:38 85° SSW 04:49:14 10° SE visible
6 Apr ? 23:45:44 15° ENE 23:45:44 15° ENE 23:46:45 10° ENE visible
7 Apr ? 01:30:32 45° N 01:30:42 45° N 01:37:08 10° ENE visible
7 Apr ? 03:15:20 13° WNW 03:21:30 61° NNE 03:28:06 10° ESE visible
8 Apr ? 00:13:02 25° NE 00:13:02 25° NE 00:15:48 10° ENE visible
8 Apr ? 01:57:50 35° NW 02:00:05 47° N 02:06:33 10° E visible
8 Apr ? 03:43:47 10° WNW 03:50:35 86° NNE 03:57:15 10° ESE visible
8 Apr ? 20:52:12 10° SSW 20:53:42 17° SSW 20:53:42 17° SSW visible
8 Apr?22:55:33ENE22:55:33ENE22:38:45WSWvisible
9 Apr ? 00:40:22 38° NE 00:40:22 38° NE 00:45:01 10° ENE visible
9 Apr ? 02:25:10 23° NW 02:29:24 57° NNE 02:35:59 10° E visible
9 Apr ? 04:12:49 10° WNW 04:19:27 61° SW 04:25:57 10° SE visible
9 Apr ? 19:34:03 10° SSE 19:38:02 17° SE 19:39:18 16° ESE visible
9 Apr ? 21:20:18 10° SW 21:24:22 38° SSW 21:24:22 38° SSW visible
9 Apr ? 23:22:58 14° ENE 23:22:58 14° ENE 23:23:44 10° ENE visible
10 Apr ? 01:07:48 46° N 01:07:56 46° N 01:14:24 10° ENE visible
10 Apr ? 02:52:37 14° WNW 02:58:33 78° NNE 03:05:13 10° ESE visible
10 Apr ? 04:42:04 10° WNW 04:48:04 35° SW 04:53:57 10° SSE visible
10 Apr ? 20:00:35 10° SSW 20:06:22 32° SE 20:10:10 19° E visible
10 Apr ? 21:49:03 10° WSW 21:55:14 75° W 21:55:14 75° W visible
10 Apr ? 23:39:51 10° W 23:50:36 22° NE 23:52:54 10° ENE visible
11 Apr ? 01:35:26 42° NNW 01:37:16 53° NNE 01:43:50 10° E visible
11 Apr ? 03:20:43 10° WNW 03:27:27 71° SW 03:34:04 10° SE visible
11 Apr ? 20:28:26 10° SW 20:34:58 56° SE 20:40:54 13° ENE visible
11 Apr ? 22:18:15 10° W 22:24:56 60° NNW 22:25:55 55° NNE visible
12 Apr ? 00:09:15 10° WNW 00:18:43 29° NE 00:22:14 10° ENE visible
12 Apr ? 02:03:37 37° NW 02:06:27 70° NNE 02:13:09 10° ESE visible
12 Apr ? 03:49:53 10° WNW 03:56:09 42° SW 04:02:18 10° SSE visible
12 Apr ? 19:09:05 10° S 19:14:29 27° SE 19:19:58 10° ENE visible
12 Apr ? 20:57:02 10° WSW 21:03:47 88° SSE 21:10:37 10° ENE visible
12 Apr ? 22:47:40 10° W 22:54:13 48° N 22:55:42 42° NNE visible
13 Apr ? 00:38:31 10° WNW 00:47:55 32° ENE 00:51:41 10° E visible
13 Apr ? 02:32:55 42° WNW 02:35:28 80° SSW 02:42:09 10° SE visible
13 Apr ? 04:19:33 10° W 04:24:36 23° SW 04:29:34 10° S visible
13 Apr ? 19:36:39 10° SSW 19:43:00 48° SE 19:49:28 10° ENE visible
13 Apr ? 21:26:07 10° WSW 21:32:50 65° NNW 21:39:22 11° ENE visible
13 Apr ? 23:17:07 10° WNW 23:23:36 45° N 23:24:14 44° NNE visible
